Vorticity
nan nan nan nan nan nan nan nan nan nan nan nan nan nan nan nan nan nan nan nan nan nan nan nan nan nan nan nan nan nan nan nan nan nan nan nan nan nan nan nan nan nan nan nan
nan 12 6 6 8 9 7 4 6 5 11 9 7 11 9 6 4 10 11 7 9 11 9 8 7 6 8 6 7 7 9 7 6 7 7 9 8 8 6 6 11 12 8 nan
nan 9 18 8 10 9 10 10 4 5 5 5 7 11 12 10 8 8 6 7 12 12 10 8 7 7 8 8 8 6 8 6 6 6 6 7 7 8 7 6 9 9 7 nan
nan 13 6 12 8 10 8 8 5 9 5 1 6 13 17 16 11 8 5 6 8 11 12 9 8 8 7 8 11 9 9 6 6 7 7 7 5 6 7 4 5 9 10 nan
nan 10 3 9 10 6 5 9 13 13 6 7 7 7 9 14 19 8 14 16 10 9 11 10 10 9 8 9 8 10 10 8 7 6 7 8 4 4 10 11 8 7 8 nan
nan 0 13 19 10 1 16 15 10 13 14 12 9 5 9 18 19 5 8 17 17 11 9 11 10 9 8 8 8 10 8 10 10 8 9 8 7 4 5 9 8 7 8 nan
nan 11 11 16 12 13 10 7 12 11 11 10 11 13 6 8 10 14 12 15 12 13 14 12 9 8 8 8 6 9 9 8 8 9 9 9 8 8 7 5 7 7 5 nan
nan 12 18 6 11 16 13 1 1 4 8 15 14 4 10 12 2 9 11 10 12 11 11 12 9 8 8 8 7 7 9 7 6 8 7 9 6 7 12 7 6 8 9 nan
nan 14 13 13 5 8 13 9 -2 5 8 10 16 6 9 15 9 11 9 11 14 8 10 12 11 9 9 9 9 7 8 8 7 6 7 8 9 7 10 9 5 7 7 nan
nan 11 20 16 7 8 3 14 15 7 7 9 7 6 9 12 11 10 10 11 11 22 19 14 11 10 8 9 9 9 7 9 9 7 6 8 10 7 7 9 9 7 7 nan
nan 16 12 12 15 7 11 4 7 13 9 7 8 7 10 9 9 5 5 8 16 20 18 15 14 11 9 8 9 9 9 8 8 10 8 6 8 8 6 8 9 9 8 nan
nan 6 11 17 13 15 9 5 5 3 8 10 8 10 7 7 6 9 8 4 12 11 21 20 14 12 10 8 9 8 9 8 9 9 9 10 8 8 7 8 8 10 10 nan
nan 17 12 9 6 15 15 19 10 4 8 6 6 11 3 -7 1 5 9 7 6 9 13 17 18 13 11 10 8 9 8 9 9 8 8 8 9 11 10 8 8 9 10 nan
nan 14 14 10 11 11 16 9 8 10 11 11 5 2 5 1 6 5 5 8 8 9 12 16 12 12 13 12 11 10 9 10 10 9 8 7 9 8 8 10 10 9 9 nan
nan 8 13 17 15 16 20 11 5 9 5 8 8 9 9 12 7 8 7 9 13 10 8 10 18 18 13 11 12 13 11 11 10 10 8 8 8 10 9 9 9 9 9 nan
nan 4 16 16 6 12 11 9 13 11 9 9 9 12 14 7 7 7 8 12 11 11 11 9 8 11 13 20 20 12 12 13 11 10 8 10 10 10 9 10 9 9 10 nan
nan 12 6 8 10 12 16 17 9 7 12 13 12 10 16 10 5 6 12 8 9 9 10 12 13 12 9 10 12 18 20 14 12 9 10 10 10 10 10 10 10 10 10 nan
nan 8 9 11 10 5 9 19 19 12 12 11 13 12 4 10 8 12 12 6 8 8 10 12 12 12 14 14 13 14 15 18 15 10 11 10 11 10 11 10 9 10 11 nan
nan 4 10 11 5 6 10 18 14 12 9 11 8 7 8 10 13 17 2 7 7 9 11 10 10 13 14 13 13 15 15 16 18 14 10 10 10 11 11 11 11 11 11 nan
nan 7 5 8 9 8 11 14 10 14 10 2 9 10 9 12 20 2 -4 5 9 10 10 9 11 12 10 11 15 20 21 20 18 19 21 16 12 12 11 11 11 11 16 nan
nan 11 9 3 7 6 14 3 12 15 5 5 10 11 13 9 7 2 7 11 11 9 9 11 14 10 7 11 15 18 17 15 16 21 27 28 25 22 20 18 18 15 12 nan
nan 6 13 11 10 9 11 19 9 12 11 7 11 11 12 12 10 11 9 10 9 9 9 13 12 10 9 10 14 14 11 12 15 15 16 17 21 22 22 20 18 20 14 nan
nan 7 11 13 8 12 11 16 16 10 8 9 10 8 10 11 10 10 11 9 10 12 11 10 10 11 9 10 11 10 12 16 16 13 12 11 12 12 13 11 11 10 9 nan
nan 8 6 13 16 10 7 4 5 10 9 8 8 9 10 10 10 10 11 9 9 9 10 12 11 10 10 12 12 10 15 16 13 12 11 10 10 11 13 14 13 12 13 nan
nan 20 7 10 13 9 5 3 7 10 9 10 10 9 10 11 11 11 11 10 10 11 12 13 12 11 10 11 13 14 13 15 15 13 11 11 9 9 9 12 16 18 19 nan
nan nan nan nan nan nan nan nan nan nan nan nan nan nan nan nan nan nan nan nan nan nan nan nan nan nan nan nan nan nan nan nan nan nan nan nan nan nan nan nan nan nan nan nan
CAPE
0 0 0 0 0 0 0 11 10 0 0 0 0 0 0 0 0 0 1 13 61 260 219 80 0 0 18 74 37 17 12 9 2 15 22 26 20 19 38 26 57 140 68 144
0 0 0 0 0 0 0 0 0 0 0 0 0 0 0 0 0 0 3 15 37 149 266 50 0 5 52 39 11 17 7 6 4 2 4 15 16 4 1 16 58 107 137 208
0 0 0 0 0 0 0 0 0 0 0 0 0 0 0 0 0 0 0 0 9 57 291 123 0 0 26 49 8 11 14 6 6 0 3 29 19 13 7 20 25 50 84 172
12 0 0 2 1 1 1 0 0 0 0 0 0 0 0 0 0 0 0 0 0 6 146 286 55 9 16 8 8 35 30 13 4 7 7 15 14 17 7 1 17 35 25 155
6 1 0 1 2 1 0 0 1 0 0 0 0 0 0 0 0 0 0 1 3 0 45 269 174 45 10 21 14 7 22 24 13 19 6 10 7 24 35 15 29 11 2 75
0 0 2 1 0 0 0 1 1 1 0 7 2 0 0 3 1 3 0 0 0 0 0 172 219 128 16 11 25 10 9 19 26 18 7 9 1 19 18 37 30 13 24 44
0 0 0 1 0 0 1 8 11 10 2 0 0 3 0 0 0 0 0 0 0 0 0 113 248 169 31 11 29 8 5 7 18 18 18 13 10 9 11 11 2 0 1 30
4 0 0 3 5 0 2 3 3 7 11 2 4 0 0 3 0 0 0 0 0 0 1 92 236 254 78 19 27 16 0 4 9 21 14 16 12 25 14 7 0 0 0 21
3 0 0 0 6 0 3 8 0 1 21 18 12 2 1 0 0 0 0 0 0 0 0 63 178 311 184 48 36 29 0 1 3 15 17 14 17 15 13 17 11 0 4 55
1 5 0 3 4 3 0 1 5 16 12 17 17 46 26 0 1 7 0 7 1 0 0 59 198 343 303 119 37 27 1 2 5 5 20 21 20 34 16 14 23 13 2 82
0 19 0 13 18 18 4 10 23 12 11 15 32 27 23 0 13 31 31 11 5 0 17 71 225 343 411 302 113 44 7 0 23 23 4 17 15 34 32 26 63 31 38 43
0 2 6 1 3 28 18 4 26 33 10 35 50 15 0 0 0 0 0 29 41 5 1 160 301 397 460 438 310 118 49 8 14 51 52 97 97 96 101 168 154 270 106 46
30 2 5 5 4 8 31 33 24 29 41 20 76 18 0 0 0 0 4 26 39 9 1 58 313 416 501 516 496 320 167 74 21 22 74 249 362 383 433 443 289 301 305 216
2 69 15 0 14 6 15 23 8 7 21 50 51 60 1 4 0 0 0 2 1 14 9 17 121 251 456 493 500 499 395 279 114 37 80 156 265 252 327 289 288 262 267 213
0 46 67 53 78 67 23 19 11 17 8 9 26 13 8 3 0 0 1 0 6 17 5 34 34 56 108 252 463 475 446 412 311 162 86 172 294 248 183 271 248 223 213 196
9 4 20 25 34 55 83 82 96 69 61 45 46 48 46 17 0 0 0 4 0 1 11 5 6 2 4 7 114 279 433 425 370 335 380 174 240 205 249 233 257 253 257 210
22 6 13 10 0 0 1 3 18 13 47 62 62 78 17 0 0 0 0 0 4 5 0 0 0 1 9 5 2 26 171 404 406 433 352 372 382 278 286 258 152 194 221 221
13 22 7 15 4 4 2 0 27 52 119 99 52 0 0 0 0 0 18 0 0 0 0 0 0 0 10 9 2 0 2 63 370 380 421 360 455 423 349 250 183 196 214 236
14 17 45 16 15 0 0 0 32 139 116 32 4 0 0 0 0 86 57 1 0 0 0 0 0 0 1 3 2 0 0 0 48 347 454 399 433 284 341 372 385 336 307 279
24 8 69 48 7 8 4 18 2 77 110 5 0 2 0 0 3 142 28 0 0 0 0 0 0 0 0 2 0 0 10 0 0 23 161 419 401 334 320 420 500 478 434 357
49 46 23 29 28 11 27 12 0 20 92 24 5 20 12 10 62 8 0 0 0 0 0 0 0 0 0 0 0 1 1 3 2 104 116 128 293 409 387 496 312 212 20 0
25 42 45 54 27 18 54 6 45 91 46 1 36 4 24 34 38 2 0 0 0 0 0 0 0 0 0 0 0 5 10 6 1 0 0 0 0 0 0 0 1 0 0 0
35 24 62 20 37 170 187 153 76 41 10 0 0 0 0 0 0 0 0 0 0 0 0 0 0 0 0 0 0 1 5 6 2 1 1 1 0 1 1 1 1 1 2 4
43 55 83 71 136 107 163 91 11 3 0 0 0 0 0 0 0 0 0 0 0 0 0 0 0 0 1 2 0 1 2 4 3 2 3 1 1 1 1 1 0 1 0 1
57 134 111 110 74 200 45 2 0 1 0 0 0 0 0 0 0 0 0 1 1 1 1 1 2 1 1 1 4 2 1 2 3 2 1 2 1 1 2 1 2 1 1 0
130 89 75 87 136 153 1 4 0 3 1 0 0 0 0 0 0 1 3 3 3 4 4 3 4 2 2 3 4 6 1 0 1 2 3 3 4 10 2 4 6 11 10 9